Weather History for Millville, NJ

Change the Weather History Date:

Saturday, April 27, 2013

  Actual Average Record
Temperature  
Mean Temperature 50 °F -  
Max Temperature 66 °F 65 °F 90 °F (1990)
Min Temperature 35 °F 43 °F 28 °F (2001)
Degree Days  
Heating Degree Days 14    
Moisture  
Dew Point 33 °F    
Average Humidity 55    
Maximum Humidity 89    
Minimum Humidity 20    
Precipitation  
Precipitation 0.00 in - - ()
Sea Level Pressure  
Sea Level Pressure 30.37 in    
Wind  
Wind Speed 2 mph (South)    
Max Wind Speed 8 mph    
Max Gust Speed -    
Visibility 10 miles    
Events      
Averages and records for this station are not official NWS values.
T = Trace of Precipitation, MM = Missing Value Source: NWS Daily Summary

Daily Weather History Graph

Daily Weather History Graph

Search for Another Location

Airport:

Trip Planner

Search our weather history database for the weather conditions in past years. The results will help you decide how hot, cold, wet, or windy it might be!

Date:

Astronomy

Apr. 27, 2013 Rise Set
Actual Time 6:06 AM EDT 7:50 PM EDT
Civil Twilight 5:37 AM EDT 8:18 PM EDT
Nautical Twilight 5:03 AM EDT 8:53 PM EDT
Astronomical Twilight 4:26 AM EDT 9:30 PM EDT
Moon 10:16 PM EDT (4/27) 7:23 AM EDT (4/27)
Length of Visible Light 14h 41m
Length of Day
13h 43m
Waning Gibbous, 95% of the Moon is Illuminated
Apr 27
Waning Gibbous
May 2
Last Quarter
May 9
New
May 18
First Quarter
May 25
Full

Hourly Weather History & Observations

Time (EDT) Temp. Windchill Dew Point Humidity Pressure Visibility Wind Dir Wind Speed Gust Speed Precip Events Conditions
12:54 AM 37.9 °F 35.5 °F 30.9 °F 76% 30.40 in 10.0 mi West 3.5 mph - N/A   Clear
1:54 AM 37.9 °F - 32.0 °F 79% 30.40 in 10.0 mi Calm Calm - N/A   Clear
2:54 AM 36.0 °F - 30.9 °F 82% 30.39 in 10.0 mi Calm Calm - N/A   Clear
3:54 AM 37.0 °F - 33.1 °F 86% 30.39 in 10.0 mi Calm Calm - N/A   Clear
4:54 AM 36.0 °F - 32.0 °F 86% 30.39 in 10.0 mi Calm Calm - N/A   Clear
5:54 AM 35.1 °F - 32.0 °F 89% 30.40 in 10.0 mi Calm Calm - N/A   Clear
6:54 AM 37.0 °F - 33.1 °F 86% 30.41 in 10.0 mi Calm Calm - N/A   Clear
7:54 AM 48.9 °F - 36.0 °F 61% 30.43 in 10.0 mi Variable 3.5 mph - N/A   Clear
8:54 AM 54.0 °F - 32.0 °F 43% 30.43 in 10.0 mi NE 6.9 mph - N/A   Clear
9:54 AM 57.9 °F - 32.0 °F 37% 30.43 in 10.0 mi ESE 4.6 mph - N/A   Clear
10:54 AM 61.0 °F - 33.1 °F 35% 30.42 in 10.0 mi Calm Calm - N/A   Clear
11:54 AM 64.9 °F - 28.0 °F 25% 30.41 in 10.0 mi Variable 6.9 mph - N/A   Clear
12:54 PM 66.0 °F - 24.1 °F 20% 30.38 in 10.0 mi Calm Calm - N/A   Clear
1:54 PM 66.0 °F - 35.1 °F 32% 30.36 in 10.0 mi Variable 4.6 mph - N/A   Clear
2:54 PM 66.0 °F - 34.0 °F 30% 30.34 in 10.0 mi SW 8.1 mph - N/A   Clear
3:54 PM 64.9 °F - 32.0 °F 29% 30.33 in 10.0 mi Variable 6.9 mph - N/A   Clear
4:54 PM 64.0 °F - 36.0 °F 35% 30.33 in 10.0 mi Variable 5.8 mph - N/A   Clear
5:54 PM 63.0 °F - 30.0 °F 29% 30.32 in 10.0 mi Variable 4.6 mph - N/A   Clear
6:54 PM 60.1 °F - 28.0 °F 30% 30.32 in 10.0 mi South 5.8 mph - N/A   Clear
7:54 PM 57.0 °F - 35.1 °F 44% 30.32 in 10.0 mi Calm Calm - N/A   Clear
8:54 PM 52.0 °F - 37.9 °F 59% 30.32 in 10.0 mi Calm Calm - N/A   Clear
9:54 PM 48.9 °F - 39.0 °F 69% 30.33 in 9.0 mi Calm Calm - N/A   Clear
10:54 PM 45.0 °F - 37.9 °F 76% 30.32 in 10.0 mi Calm Calm - N/A   Clear
11:54 PM 43.0 °F - 37.9 °F 82% 30.32 in 10.0 mi Calm Calm - N/A   Clear